Location: Houhaj�rvi
(61.2667°N, 23.0167°E)
Time: 19:54:58
(UTC+00:00)

Cosmos 468 Rocket - Pass Details

Date: 13 December 2019
Orbit: 744 x 780 km, 74.0° (Epoch: 17 January)

Event Time Altitude Azimuth Distance (km) Brightness Sun altitude
Rises 15:47:27 0° 323° (NW) 3,207 7.5 -16.2°
Reaches altitude 10° 15:49:53 10° 328° (NNW) 2,284 6.6 -16.4°
Maximum altitude 15:54:56 51° 45° (NE) 951 4.1 -17.0°
Enters shadow 15:58:06 22° 113° (ESE) 1,617 5.2 -17.4°
